Lid_Strength_Index
-1 -1 -1 -1 -1 -1 -1 -1 -1 -1 -1 -1 -1 -1 -0 -1 -1 -1 -1 -2 -2 -2 -2 -2 -2 -1 -1 -1 -1 -1 -1 -1 -1 -1 -1 -1 -1 -1 -1 -1 -2 -1 -2
-1 -1 -1 -1 -1 -1 -1 -1 -1 -1 -1 -1 -1 -1 -1 -1 -1 -1 -1 -1 -2 -2 -2 -2 -2 -1 -1 -1 -1 -1 -1 -1 -1 -1 -1 -1 -1 -1 -1 -1 -1 -1 -1
-1 -1 -1 -1 -1 -1 -1 -1 -1 -1 -0 -1 -0 -1 -1 -1 -1 -1 -1 -1 -1 -2 -2 -2 -2 -1 -1 -1 -1 -1 -1 -1 -1 -1 -1 -1 -1 -1 -1 -1 -1 -1 -1
-2 -1 -1 -1 -1 -1 -1 -0 -0 0 0 0 0 -0 -0 1 0 -1 -1 -1 -1 -1 -2 -2 -2 -1 -1 -1 -1 -1 -1 -1 -1 -1 -1 -1 -1 -1 -1 -1 -1 -1 -1
-2 -1 -1 -1 -2 -1 -1 -0 -0 -0 0 1 0 0 0 1 1 -0 -1 -1 -1 -1 -1 -2 -2 -2 -1 -1 -1 -1 -1 -1 -1 -1 -1 -1 -1 -1 -1 -1 -1 -1 -1
-1 -1 -1 -1 -1 -0 -0 -0 0 -0 0 1 1 1 1 1 1 0 -1 -1 -1 -1 -1 -2 -2 -1 -1 -1 -1 -1 -1 -1 -1 -1 -1 -2 -1 -1 -1 -1 -1 -1 -1
-1 -1 -1 -1 -1 -0 -0 -0 0 1 1 0 1 2 2 1 2 2 0 -1 -1 -1 -1 -1 -1 -2 -1 -2 -2 -1 -1 -1 -1 -1 -2 -2 -2 -2 -1 -1 -1 -1 -1
-1 -1 -1 -0 -0 0 0 0 0 1 1 0 2 2 4 3 3 3 1 -0 -0 -1 -1 -1 -1 -2 -2 -2 -2 0 0 -0 -1 -1 -1 -2 -2 -2 -1 -1 -1 -1 -1
-0 -1 -1 -0 -0 -0 1 0 0 1 2 1 0 2 4 6 3 3 2 1 1 -1 -1 -1 -1 -1 -2 -2 -1 0 1 1 -0 -1 -1 -2 -1 -1 -1 -1 -1 -1 -1
2 2 -1 -1 -1 -0 0 0 0 0 1 2 1 2 4 4 5 5 4 4 3 2 1 0 -1 -1 -2 -1 1 1 1 1 1 -1 -1 -1 -1 -1 -1 -1 -1 -1 -1
6 4 3 1 -0 -0 -0 -0 0 0 1 1 2 3 4 5 6 6 5 5 4 4 2 0 -0 -1 -2 -1 0 0 1 0 1 1 -0 -0 -0 -0 -1 -2 -2 -2 -1
9 8 7 6 3 0 -0 -0 -0 0 1 1 1 2 5 6 6 6 6 5 5 4 3 0 -1 -1 -0 0 1 2 1 1 1 1 0 1 2 2 1 0 -1 -1 -2
9 9 8 8 7 4 1 -0 0 0 0 1 1 3 4 5 5 6 6 5 7 6 4 1 1 1 2 1 1 1 1 1 1 2 3 3 3 3 3 2 0 0 -0
9 8 8 8 8 8 6 4 2 0 0 1 1 3 5 5 6 6 6 6 9 8 6 3 3 3 2 1 2 1 2 3 4 4 4 5 5 4 4 3 2 2 1
8 7 8 8 7 7 7 6 6 4 1 1 1 2 3 4 6 7 7 6 6 8 8 6 5 3 3 2 3 1 2 5 5 6 5 5 5 5 5 4 4 3 3
8 9 8 9 9 8 6 5 5 5 2 1 1 3 5 7 7 8 7 7 8 6 7 6 5 4 3 3 4 3 3 6 6 6 6 6 6 5 5 5 4 4 3
8 8 7 6 8 9 8 6 5 4 3 2 4 5 6 6 7 8 8 7 8 8 7 8 6 5 4 4 4 3 3 3 4 7 7 6 6 5 5 5 5 5 4
8 8 7 7 7 7 7 5 6 5 2 3 6 6 6 5 4 4 6 7 7 7 6 7 6 6 4 4 4 4 4 5 5 6 7 7 6 5 5 5 5 5 4
9 9 9 9 8 8 8 7 4 4 2 2 5 4 3 3 3 5 5 5 6 6 7 7 8 7 6 6 6 5 5 4 5 8 6 6 6 5 5 5 5 4 5
10 9 9 9 8 8 7 7 5 4 4 1 2 4 2 4 3 4 4 4 6 7 7 7 8 8 7 7 6 7 7 6 6 6 7 7 6 6 4 4 4 4 5
10 10 10 9 8 7 7 7 6 4 4 2 2 4 3 3 3 3 5 6 7 7 8 9 9 8 8 8 8 8 8 7 6 6 6 6 5 4 3 3 3 4 5
9 10 10 10 9 6 5 5 5 4 3 2 2 4 5 5 5 6 6 7 6 7 8 8 8 8 8 7 8 8 8 8 8 6 7 7 5 5 4 3 5 6 6
9 10 10 10 11 9 8 6 5 4 4 2 2 4 5 7 6 7 8 8 8 8 7 6 7 7 8 7 7 7 8 8 8 6 7 7 6 6 5 5 6 6 8
10 10 10 10 11 10 9 7 5 3 3 2 3 5 6 7 9 8 9 9 9 8 8 6 6 6 6 6 6 7 7 7 7 6 6 8 5 6 6 5 6 7 8
9 10 10 11 11 11 9 7 5 3 2 3 4 5 6 8 9 10 9 10 10 10 10 9 9 9 10 10 8 8 8 9 8 7 6 7 6 7 6 6 4 7 8
9 8 9 10 9 11 9 8 7 5 8 9 9 8 7 9 11 10 9 10 11 11 10 10 11 10 10 10 11 8 8 9 9 9 6 7 6 7 8 5 5 5 5